STARLINK-31629, 59255

Orbit data source: Space-Track

STARLINK-31629, 59255 is a payload satellite owned by SpaceX/Seattle (US) in LEO that was launched on Tue, 19 Mar 2024 UTC via an FALCON 9 launch vehicle from the Air Force Western Test Range (AFWTR). Payload-class satellites include a variety of spacecraft equipped with specific instruments for various scientific and technological missions. These include communications satellites like Starlink; space stations such as the ISS; scientific satellites like the Hubble; Earth observation satellites from companies like Planet Labs, Umbra, and HawkEye 360; GPS; miniature CubeSats for education and research; and military/defense satellites.

Loading next visibility...
Identifier
59255, 2024-050B
Orbit
LEO
Country
Flag of USUS
Related business
Manufacturer
SpaceX/Seattle
Mission
Operational Commercial Communications
Bus & Motor
STARLINK V2M, Unknown motor
Mass
730 kg wet, ~700 kg dry
Launch date (UTC)
2024-03-19 (2 years ago)
Launch vehicle
FALCON 9
Launch site
Air Force Western Test Range (AFWTR)
Object type
Payload
Rocket body
Debris
Shape & HBR
Box + 2 Pan, 17.7 m
Radar Cross Section
33.884 m², Large (>1 m²)

Expand to show TLE details & history
Last TLE update: 3 days ago

TLE from 3 days ago
0 STARLINK-31629
1 59255U 24050B   26170.87867306  .00001382  00000-0  58754-4 0  9995
2 59255  53.1608  66.3747 0001304  87.7660 272.3490 15.30207033126196
Epoch: 2026-06-19T21:05Z
TLE epoch observation values (Epoch: 2026-06-19T21:05:17.352Z)
Latitude
-0.00002°
Longitude
-158.04894°
Altitude
476.057 km
Speed
7.629 km/s
True Right ascension
04h 25m 29s
True Declination
0° 00' 00"
Sunlit
Object was in daylight at epoch
Visualization orbit readout
Latitude
Unknown
Longitude
Unknown
Altitude
Unknown
Speed
Unknown
Apparent Right ascension
Unknown
Apparent Declination
Unknown
Sunlit
N/A
Visualization observer readout
Local Sidereal Time
23:08:44
Azimuth
Unknown
Elevation
Unknown
Doppler factor
Unknown
Orbital elements
Apogee altitude
476.344 km
Perigee altitude
474.557 km
Semi-major axis
6,853.587 km
Eccentricity
0.00013
Inclination
53.1608°
RAAN
66.3747°
Arg. of periapsis
87.766°
True anomaly
272.33407°
Mean anomaly
272.349°
Eccentric anomaly
272.34153°
Mean motion
3.82531 °/min
Orbital period
94.11 mins
BSTAR
0.000058754
Loading maneuver chart data...
Computing Atmospheric mass density...
Loading historical data...
Loading historical data...
Loading historical data...
Loading historical data...
Loading historical data...
Loading historical data...
Loading historical data...

Documentation

Showing up to 5 results
|